Elkins, WV

3:34 AM EDT on July 27, 2017 (GMT -0400)
Elkins-Randolph County

Weather History for KEKN - February, 2013

Change the Weather History Date:

Sunday, February 24, 2013

  Actual Average Record
Temperature  
Mean Temperature 31 °F 34 °F  
Max Temperature 41 °F 45 °F 77 °F (2017)
Min Temperature 20 °F 23 °F -15 °F (2015)
Degree Days  
Heating Degree Days 34 31  
Month to date heating degree days 870 798  
Since 1 July heating degree days 4123 4199  
Cooling Degree Days 0 0  
Month to date cooling degree days 0 0  
Year to date cooling degree days 0 0  
Moisture  
Dew Point 23 °F    
Average Humidity 68    
Maximum Humidity 92    
Minimum Humidity 44    
Precipitation  
Precipitation 0.00 in 0.11 in 0.73 in (1972)
Month to date precipitation 1.74 2.63  
Year to date precipitation 6.25 5.86  
Snow  
Snow 0.00 in - - ()
Month to date snowfall 17.8  
Since 1 September snowfall 55.9  
Snow Depth 0.00 in    
Sea Level Pressure  
Sea Level Pressure 30.00 in    
Wind  
Wind Speed 6 mph (WNW)    
Max Wind Speed 18 mph    
Max Gust Speed 25 mph    
Visibility 9 miles    
Events      
T = Trace of Precipitation, MM = Missing Value Source: NWS Daily Summary

Daily Weather History Graph

Daily Weather History Graph

Search for Another Location

Airport or City:

Trip Planner

Search our weather history database for the weather conditions in past years. The results will help you decide how hot, cold, wet, or windy it might be!

Date:

Astronomy

Feb. 24, 2013 Rise Set
Actual Time 6:58 AM EST 6:07 PM EST
Civil Twilight 6:31 AM EST 6:34 PM EST
Nautical Twilight 6:00 AM EST 7:05 PM EST
Astronomical Twilight 5:29 AM EST 7:35 PM EST
Moon 5:16 PM EST (2/24) 5:54 AM EST (2/24)
Length of Visible Light 12h 02m
Length of Day
11h 08m
Waxing Gibbous, 99% of the Moon is Illuminated
Feb 24
Waxing Gibbous
Feb 25
Full
Mar 4
Last Quarter
Mar 11
New
Mar 19
First Quarter

Hourly Weather History & Observations

Time (EST) Temp. Windchill Dew Point Humidity Pressure Visibility Wind Dir Wind Speed Gust Speed Precip Events Conditions
12:51 AM 32.0 °F - 30.0 °F 92% 29.89 in 6.0 mi Calm Calm - N/A   Overcast
1:29 AM 33.8 °F - 30.2 °F 87% 29.85 in 6.0 mi Calm Calm - N/A   Overcast
1:40 AM 33.8 °F - 30.2 °F 87% 29.85 in 6.0 mi Calm Calm - N/A   Overcast
1:51 AM 34.0 °F - 30.9 °F 89% 29.88 in 6.0 mi Calm Calm - N/A   Overcast
2:51 AM 36.0 °F 31.1 °F 30.9 °F 82% 29.89 in 10.0 mi NW 5.8 mph - N/A   Overcast
3:51 AM 36.0 °F 32.1 °F 30.0 °F 79% 29.89 in 10.0 mi WNW 4.6 mph - N/A   Overcast
4:14 AM 35.6 °F 31.7 °F 28.4 °F 75% 29.86 in 10.0 mi WNW 4.6 mph - N/A   Overcast
4:51 AM 34.0 °F - 28.0 °F 79% 29.91 in 10.0 mi Calm Calm - N/A   Overcast
5:51 AM 34.0 °F - 24.1 °F 67% 29.93 in 10.0 mi Calm Calm - N/A   Overcast
6:49 AM 33.8 °F - 24.8 °F 70% 29.89 in 10.0 mi Calm Calm - N/A   Overcast
6:51 AM 34.0 °F - 24.1 °F 67% 29.94 in 10.0 mi Calm Calm - N/A   Overcast
7:51 AM 33.1 °F 26.1 °F 23.0 °F 66% 29.97 in 10.0 mi NW 8.1 mph - N/A   Overcast
8:03 AM 33.8 °F 27.0 °F 23.0 °F 65% 29.92 in 10.0 mi West 8.1 mph - N/A   Overcast
8:51 AM 32.0 °F 26.4 °F 23.0 °F 69% 30.01 in 10.0 mi West 5.8 mph - N/A   Overcast
9:51 AM 33.1 °F 30.0 °F 23.0 °F 66% 30.01 in 10.0 mi West 3.5 mph - N/A   Overcast
10:51 AM 34.0 °F 26.0 °F 23.0 °F 64% 30.03 in 10.0 mi WSW 10.4 mph 19.6 mph N/A   Overcast
11:26 AM 35.6 °F 29.2 °F 23.0 °F 60% 29.95 in 10.0 mi WSW 8.1 mph 19.6 mph N/A   Mostly Cloudy
11:51 AM 36.0 °F 27.5 °F 21.9 °F 57% 30.02 in 10.0 mi West 12.7 mph 23.0 mph N/A   Mostly Cloudy
12:51 PM 39.0 °F 32.3 °F 23.0 °F 53% 29.99 in 10.0 mi WNW 10.4 mph 20.7 mph N/A   Partly Cloudy
1:51 PM 39.9 °F 31.4 °F 21.0 °F 47% 29.99 in 10.0 mi WNW 16.1 mph - N/A   Clear
2:51 PM 39.9 °F 31.8 °F 19.0 °F 43% 30.00 in 10.0 mi West 15.0 mph 24.2 mph N/A   Clear
3:51 PM 37.0 °F 28.9 °F 21.9 °F 54% 30.03 in 10.0 mi NW 12.7 mph 19.6 mph N/A   Scattered Clouds
4:51 PM 34.0 °F 28.0 °F 21.0 °F 59% 30.06 in 10.0 mi NNW 6.9 mph - N/A   Mostly Cloudy
5:37 PM 30.2 °F 23.4 °F 19.4 °F 64% 30.02 in 10.0 mi Variable 6.9 mph - N/A   Overcast
5:51 PM 30.0 °F 21.7 °F 19.9 °F 66% 30.10 in 10.0 mi North 9.2 mph - N/A   Overcast
6:51 PM 28.9 °F 21.9 °F 19.9 °F 69% 30.13 in 10.0 mi NW 6.9 mph - N/A   Overcast
7:51 PM 28.0 °F 20.0 °F 19.0 °F 69% 30.16 in 10.0 mi NW 8.1 mph - N/A   Overcast
8:51 PM 27.0 °F 20.5 °F 17.1 °F 66% 30.18 in 10.0 mi NNW 5.8 mph - N/A   Overcast
9:44 PM 24.8 °F 20.5 °F 15.8 °F 69% 30.11 in 10.0 mi NNW 3.5 mph - N/A   Scattered Clouds
9:51 PM 25.0 °F 20.7 °F 15.1 °F 66% 30.19 in 10.0 mi North 3.5 mph - N/A   Scattered Clouds
10:51 PM 24.1 °F - 18.0 °F 77% 30.18 in 10.0 mi Calm Calm - N/A   Mostly Cloudy
11:51 PM 21.0 °F - 16.0 °F 81% 30.17 in 10.0 mi Calm Calm - N/A   Clear